Location: Grisols
(45.0093°N, 3.1167°E)
Time: 13:36:02
(UTC+00:00)

CENTAUR R/B - Pass Details

Date: 21 October 2019
Orbit: 781 x 1407 km, 63.4° (Epoch: 10 November)

Event Time Altitude Azimuth Distance (km) Brightness Sun altitude
Rises 20:22:29 0° 241° (WSW) 3,485 5.8 -37.1°
Reaches altitude 10° 20:24:57 10° 248° (WSW) 2,622 5.1 -37.5°
Enters shadow 20:29:56 42° 299° (WNW) 1,403 3.6 -38.2°
